Location: Newark
(42.8481°N, 0.4872°E)
Time: 13:21:15
(UTC+00:00)

A-11 Canister half - Pass Details

Date: 05 November 2020
Orbit: 1525 x 1684 km, 47.3° (Epoch: 01 December)

Event Time Altitude Azimuth Distance (km) Brightness Sun altitude
Rises 11:18:51 0° 216° (SW) 4,864 12.2 31.0°
Reaches altitude 10° 11:22:07 10° 212° (SSW) 3,859 12.0 31.1°
Maximum altitude 11:31:27 51° 140° (SE) 1,945 10.7 31.2°
Drops below altitude 10° 11:40:29 10° 69° (ENE) 3,752 10.9 31.3°
Sets 11:43:37 0° 64° (ENE) 4,720 11.3 31.2°
